Location: Utrecht
(52.0907°N, 5.1214°E)
Time: 16:17:32
(UTC+02:00)

ESTCUBE 1 - Pass Details

Date: 05 July 2022
Orbit: 646 x 657 km, 97.9° (Epoch: 08 August)

Event Time Altitude Azimuth Distance (km) Brightness Sun altitude
Exits shadow 00:57:00 - 223° (SW) 2,236 ? -14.4°
Reaches altitude 10° 00:57:41 10° 229° (SW) 2,048 ? -14.4°
Maximum altitude 01:00:39 17° 271° (W) 1,616 ? -14.5°
Drops below altitude 10° 01:03:40 10° 313° (NW) 2,062 ? -14.6°
Sets 01:06:35 0° 334° (NNW) 2,982 ? -14.7°
